Lancaster, CA

12:53 PM PST on February 20, 2017 (GMT -0800)
Gen Fox

Weather History for KWJF - March, 2012

Change the Weather History Date:

Thursday, March 1, 2012

  Actual Average Record
Temperature  
Mean Temperature 46 °F 51 °F  
Max Temperature 51 °F 64 °F 84 °F (2016)
Min Temperature 40 °F 37 °F 22 °F (1997)
Degree Days  
Heating Degree Days 19    
Month to date heating degree days 19  
Since 1 July heating degree days 2472  
Cooling Degree Days 0    
Month to date cooling degree days 0  
Year to date cooling degree days 0  
Moisture  
Dew Point 30 °F    
Average Humidity 61    
Maximum Humidity 76    
Minimum Humidity 45    
Precipitation  
Precipitation 0.00 in 0.05 in 2.93 in (1983)
Month to date precipitation 0.00 0.05  
Year to date precipitation 0.41 3.33  
Since 1 July precipitation 1.76  
Snow  
Snow 0.00 in - 0.00 in ()
Month to date snowfall 0.0  
Since 1 July snowfall 0.0  
Snow Depth 0.00 in    
Sea Level Pressure  
Sea Level Pressure 30.11 in    
Wind  
Wind Speed 28 mph (West)    
Max Wind Speed 47 mph    
Max Gust Speed 58 mph    
Visibility 8 miles    
Events      
T = Trace of Precipitation, MM = Missing Value Source: NWS Daily Summary

Daily Weather History Graph

Daily Weather History Graph

Search for Another Location

Airport or City:

Trip Planner

Search our weather history database for the weather conditions in past years. The results will help you decide how hot, cold, wet, or windy it might be!

Date:

Astronomy

Mar. 01, 2012 Rise Set
Actual Time 6:21 AM PST 5:49 PM PST
Civil Twilight 5:56 AM PST 6:14 PM PST
Nautical Twilight 5:26 AM PST 6:43 PM PST
Astronomical Twilight 4:57 AM PST 7:13 PM PST
Moon 11:24 AM PST (3/1) 1:13 AM PST (3/1)
Length of Visible Light 12h 18m
Length of Day
11h 27m
First Quarter, 58% of the Moon is Illuminated
Mar 1
First Quarter
Mar 8
Full
Mar 14
Last Quarter
Mar 22
New
Mar 30
First Quarter

Hourly Weather History & Observations

Time (PST) Temp. Windchill Dew Point Humidity Pressure Visibility Wind Dir Wind Speed Gust Speed Precip Events Conditions
12:56 AM 43.0 °F 33.1 °F 36.0 °F 76% 30.14 in 10.0 mi West 26.5 mph 33.4 mph N/A   Clear
1:56 AM 43.0 °F 32.9 °F 34.0 °F 71% 30.12 in 10.0 mi West 27.6 mph 40.3 mph N/A   Clear
2:56 AM 43.0 °F 33.3 °F 34.0 °F 71% 30.11 in 10.0 mi WSW 25.3 mph - N/A   Clear
3:56 AM 41.0 °F 30.7 °F 33.1 °F 73% 30.11 in 10.0 mi WSW 25.3 mph 34.5 mph N/A   Clear
4:56 AM 41.0 °F 30.7 °F 32.0 °F 70% 30.12 in 10.0 mi West 25.3 mph 38.0 mph N/A   Clear
5:56 AM 39.9 °F 27.8 °F 32.0 °F 73% 30.12 in 10.0 mi West 33.4 mph 39.1 mph N/A   Clear
6:56 AM 41.0 °F 30.7 °F 32.0 °F 70% 30.15 in 10.0 mi West 25.3 mph 34.5 mph N/A   Clear
7:56 AM 44.1 °F 34.0 °F 30.9 °F 60% 30.17 in 10.0 mi West 29.9 mph 36.8 mph N/A   Clear
8:56 AM 46.0 °F 36.7 °F 30.9 °F 56% 30.16 in 10.0 mi West 29.9 mph 39.1 mph N/A   Clear
9:56 AM 48.0 °F - 30.9 °F 52% 30.12 in 3.0 mi West 42.6 mph 49.5 mph N/A   Haze
10:00 AM 48.2 °F - 30.2 °F 50% 30.11 in 1.8 mi West 46.0 mph 51.8 mph N/A   Haze
10:11 AM 48.2 °F - 30.2 °F 50% 30.12 in 4.0 mi West 36.8 mph 48.3 mph N/A   Haze
10:33 AM 48.2 °F - 30.2 °F 50% 30.11 in 2.0 mi West 39.1 mph 50.6 mph N/A   Haze
10:42 AM 48.2 °F - 30.2 °F 50% 30.11 in 7.0 mi West 38.0 mph 46.0 mph N/A   Clear
10:56 AM 48.9 °F - 30.9 °F 50% 30.12 in 9.0 mi West 38.0 mph 46.0 mph N/A   Clear
11:56 AM 50.0 °F - 30.0 °F 46% 30.11 in 9.0 mi West 40.3 mph 47.2 mph N/A   Clear
12:41 PM 50.0 °F - 30.2 °F 47% 30.06 in 1.8 mi West 47.2 mph 55.2 mph N/A   Haze
12:56 PM 50.0 °F - 30.9 °F 48% 30.08 in 2.0 mi West 47.2 mph 55.2 mph N/A   Haze
1:05 PM 50.0 °F - 30.2 °F 47% 30.07 in 1.8 mi West 47.2 mph 54.1 mph N/A   Haze
1:09 PM 48.2 °F - 30.2 °F 50% 30.07 in 3.0 mi West 42.6 mph 54.1 mph N/A   Haze
1:56 PM 50.0 °F - 30.0 °F 46% 30.07 in 7.0 mi West 44.9 mph 52.9 mph N/A   Clear
2:31 PM 48.2 °F - 30.2 °F 50% 30.07 in 1.8 mi West 42.6 mph 51.8 mph N/A   Haze
2:41 PM 50.0 °F - 28.4 °F 43% 30.09 in 4.0 mi West 34.5 mph 43.7 mph N/A   Haze
2:56 PM 48.9 °F - 28.9 °F 46% 30.12 in 10.0 mi West 31.1 mph 41.4 mph N/A   Partly Cloudy
3:56 PM 48.9 °F - 28.0 °F 44% 30.11 in 10.0 mi WSW 25.3 mph 32.2 mph N/A   Clear
4:56 PM 48.0 °F - 28.0 °F 46% 30.06 in 10.0 mi West 34.5 mph 41.4 mph N/A   Clear
5:56 PM 46.0 °F 36.4 °F 28.0 °F 50% 30.07 in 10.0 mi West 32.2 mph 39.1 mph N/A   Clear
6:56 PM 46.9 °F - 27.0 °F 46% 30.09 in 10.0 mi WSW 16.1 mph 24.2 mph N/A   Clear
7:56 PM 46.0 °F 42.5 °F 27.0 °F 47% 30.09 in 10.0 mi SSW 6.9 mph - N/A   Clear
8:56 PM 46.0 °F 40.6 °F 28.9 °F 51% 30.11 in 10.0 mi WSW 11.5 mph 23.0 mph N/A   Clear
9:56 PM 46.0 °F 39.6 °F 30.0 °F 54% 30.11 in 10.0 mi WSW 15.0 mph 26.5 mph N/A   Clear
10:56 PM 44.1 °F 39.5 °F 30.9 °F 60% 30.12 in 10.0 mi WNW 8.1 mph 23.0 mph N/A   Clear
11:56 PM 45.0 °F 37.4 °F 30.9 °F 58% 30.11 in 10.0 mi WNW 18.4 mph 26.5 mph N/A   Clear